Idaho Falls, ID

4:07 AM MDT on July 28, 2017 (GMT -0600)
Fanning

Weather History for KIDA - August, 2013

Change the Weather History Date:

Monday, August 5, 2013

  Actual Average Record
Temperature  
Mean Temperature 71 °F 69 °F  
Max Temperature 96 °F 88 °F 97 °F (1961)
Min Temperature 45 °F 50 °F 38 °F (1980)
Degree Days  
Heating Degree Days 0 0  
Month to date heating degree days 0 0  
Since 1 June heating degree days 100 180  
Since 1 July heating degree days 0 27  
Cooling Degree Days 6 4  
Month to date cooling degree days 22 20  
Year to date cooling degree days 313 175  
Since 1 June cooling degree days 309 173  
Growing Degree Days 20 (Base 50)    
Moisture  
Dew Point 33 °F    
Average Humidity 40    
Maximum Humidity 71    
Minimum Humidity 8    
Precipitation  
Precipitation 0.00 in 0.02 in 0.32 in (2015)
Month to date precipitation 0.00 0.08  
Year to date precipitation 2.43 6.52  
Sea Level Pressure  
Sea Level Pressure 29.89 in    
Wind  
Wind Speed 8 mph (WSW)    
Max Wind Speed 25 mph    
Max Gust Speed 38 mph    
Visibility 10 miles    
Events      
T = Trace of Precipitation, MM = Missing Value Source: NWS Daily Summary

Daily Weather History Graph

Daily Weather History Graph

Search for Another Location

Airport or City:

Trip Planner

Search our weather history database for the weather conditions in past years. The results will help you decide how hot, cold, wet, or windy it might be!

Date:

Astronomy

Aug. 05, 2013 Rise Set
Actual Time 6:22 AM MDT 8:45 PM MDT
Civil Twilight 5:50 AM MDT 9:17 PM MDT
Nautical Twilight 5:10 AM MDT 9:56 PM MDT
Astronomical Twilight 4:25 AM MDT 10:41 PM MDT
Moon 5:21 AM MDT (8/5) 7:46 PM MDT (8/5)
Length of Visible Light 15h 26m
Length of Day
14h 22m
Waning Crescent, 1% of the Moon is Illuminated
Aug 5
Waning Crescent
Aug 6
New
Aug 14
First Quarter
Aug 20
Full
Aug 28
Last Quarter

Hourly Weather History & Observations

Time (MDT) Temp. Dew Point Humidity Pressure Visibility Wind Dir Wind Speed Gust Speed Precip Events Conditions
12:53 AM 61.0 °F 36.0 °F 39% 29.91 in 10.0 mi Calm Calm - N/A   Clear
1:53 AM 57.0 °F 37.9 °F 49% 29.93 in 10.0 mi North 6.9 mph - N/A   Clear
2:53 AM 53.1 °F 39.0 °F 59% 29.94 in 10.0 mi Calm Calm - N/A   Clear
3:53 AM 50.0 °F 41.0 °F 71% 29.94 in 10.0 mi Calm Calm - N/A   Clear
4:53 AM 50.0 °F 37.9 °F 63% 29.94 in 10.0 mi North 4.6 mph - N/A   Clear
5:53 AM 46.9 °F 36.0 °F 66% 29.96 in 10.0 mi North 4.6 mph - N/A   Clear
6:53 AM 46.9 °F 37.9 °F 71% 29.97 in 10.0 mi North 5.8 mph - N/A   Clear
7:53 AM 52.0 °F 42.1 °F 69% 29.97 in 10.0 mi NNW 3.5 mph - N/A   Clear
8:53 AM 61.0 °F 41.0 °F 48% 29.97 in 10.0 mi North 6.9 mph - N/A   Clear
9:53 AM 71.1 °F 39.0 °F 31% 29.96 in 10.0 mi Calm Calm - N/A   Clear
10:53 AM 78.1 °F 34.0 °F 20% 29.97 in 10.0 mi Variable 3.5 mph - N/A   Clear
11:53 AM 84.0 °F 33.1 °F 16% 29.94 in 10.0 mi South 4.6 mph - N/A   Clear
12:53 PM 88.0 °F 30.9 °F 13% 29.91 in 10.0 mi SW 10.4 mph 17.3 mph N/A   Scattered Clouds
1:53 PM 91.0 °F 30.0 °F 11% 29.89 in 10.0 mi SSW 11.5 mph 21.9 mph N/A   Scattered Clouds
2:53 PM 93.0 °F 27.0 °F 9% 29.87 in 10.0 mi WSW 10.4 mph 31.1 mph N/A   Scattered Clouds
3:53 PM 93.9 °F 27.0 °F 9% 29.84 in 10.0 mi SW 12.7 mph 24.2 mph N/A   Scattered Clouds
4:53 PM 95.0 °F 24.1 °F 8% 29.81 in 10.0 mi SW 18.4 mph 26.5 mph N/A   Scattered Clouds
5:15 PM 93.2 °F 26.6 °F 9% 29.95 in 10.0 mi WSW 18.4 mph 25.3 mph N/A   Scattered Clouds
5:53 PM 91.9 °F 25.0 °F 9% 29.81 in 10.0 mi West 13.8 mph 31.1 mph N/A   Scattered Clouds
6:53 PM 91.9 °F 21.0 °F 8% 29.79 in 10.0 mi WSW 15.0 mph 27.6 mph N/A   Partly Cloudy
7:53 PM 88.0 °F 24.1 °F 10% 29.79 in 10.0 mi WSW 12.7 mph 23.0 mph N/A   Clear
8:53 PM 82.0 °F 30.0 °F 15% 29.80 in 10.0 mi SSW 11.5 mph - N/A   Clear
9:53 PM 73.9 °F 34.0 °F 23% 29.81 in 10.0 mi SW 10.4 mph - N/A   Clear
10:53 PM 72.0 °F 32.0 °F 23% 29.81 in 10.0 mi West 9.2 mph - N/A   Clear
11:53 PM 64.0 °F 34.0 °F 33% 29.84 in 10.0 mi SW 5.8 mph - N/A   Clear